Temperature
17 16 16 16 16 15 15 15 15 15 14 14 14 14 14 14 14 14 14 14 14 14 14 14 13 13 13 13 13 13 13 13 13 12 11 11 11 11 11 11 11 11 11
16 16 16 16 16 15 15 15 15 15 14 14 14 14 14 14 14 14 14 14 14 13 13 13 13 13 13 13 13 13 13 13 12 12 11 11 11 11 11 11 11 10 11
16 16 16 16 15 15 15 15 15 15 14 14 14 14 14 14 14 14 14 13 13 13 13 13 13 13 13 13 13 13 12 12 12 12 11 11 11 11 11 10 10 10 10
16 16 16 16 15 15 15 15 15 15 14 14 14 14 14 14 14 13 13 13 13 13 13 13 13 13 13 13 13 12 12 12 12 11 11 11 11 11 10 10 10 10 10
16 16 15 16 15 15 15 15 15 14 14 14 14 14 14 13 13 13 13 13 13 13 13 13 13 13 13 13 13 12 12 12 11 11 11 11 11 11 10 10 10 10 10
15 15 15 15 15 15 15 14 14 14 14 14 14 13 13 13 13 13 13 13 13 13 13 13 13 13 13 12 12 12 12 12 11 11 11 11 11 11 10 10 10 10 10
15 15 15 15 15 15 14 14 14 14 14 13 13 13 13 13 13 13 13 13 13 13 13 12 12 13 12 12 12 12 12 12 11 11 11 11 11 11 10 10 10 10 10
15 15 15 14 14 14 14 14 14 13 13 13 13 13 13 13 13 13 13 13 13 12 12 12 12 12 12 12 12 12 12 11 11 11 11 11 11 11 10 10 10 10 9
14 14 14 14 14 14 14 14 13 13 13 13 13 13 13 12 12 12 12 12 12 12 12 12 12 12 12 12 12 12 11 11 11 11 11 10 10 10 10 10 10 9 9
14 14 14 14 14 14 13 13 13 13 13 13 12 12 12 12 12 12 12 12 12 12 12 12 12 12 11 11 11 11 11 11 10 10 10 10 10 10 10 10 9 9 9
14 14 13 13 13 13 13 13 13 13 12 12 12 12 12 12 12 12 12 12 12 12 12 11 11 11 11 11 11 11 11 10 10 10 10 10 10 9 9 9 9 9 8
14 13 13 13 13 13 13 13 12 12 12 12 12 12 12 12 12 11 11 11 11 11 11 11 11 11 11 10 10 10 10 10 10 10 9 9 9 9 9 9 9 8 8
13 13 13 13 12 12 12 12 12 12 12 12 11 11 11 11 11 11 11 11 11 11 11 10 10 10 10 10 10 10 10 9 9 9 9 9 9 9 9 8 8 8 8
13 13 12 12 12 12 12 12 12 12 12 12 11 11 11 11 11 11 11 11 11 10 10 10 10 10 10 10 9 9 9 9 9 9 9 8 8 8 8 8 8 8 7
13 12 12 12 12 12 12 12 12 12 12 12 11 11 11 11 11 11 11 10 10 10 10 10 9 9 9 9 9 9 9 9 9 8 8 8 8 8 8 8 7 7 7
12 12 12 12 12 11 11 11 11 11 11 11 11 11 11 11 10 10 10 10 10 10 10 9 9 9 9 9 9 9 9 8 8 8 8 8 8 7 7 7 7 6 6
12 11 11 11 11 11 11 11 11 11 11 11 11 11 10 10 10 10 10 10 10 9 9 9 9 9 9 8 8 8 8 8 8 8 7 7 7 7 7 7 6 6 6
11 11 11 11 11 11 11 11 11 11 11 11 10 10 10 10 10 10 10 9 9 9 9 9 9 8 8 8 8 8 8 8 7 7 7 7 7 6 6 6 6 6 6
11 11 11 11 11 11 11 11 10 10 10 10 10 10 10 9 9 9 9 9 9 9 8 8 8 8 8 8 8 8 7 7 7 7 6 6 6 6 6 6 6 5 5
10 10 10 10 10 10 10 10 10 10 10 10 10 9 9 9 9 9 9 9 9 9 8 8 8 8 8 8 8 7 7 7 7 7 6 6 6 6 5 5 5 5 5
10 10 10 9 9 9 10 10 10 9 9 9 9 9 9 9 9 9 9 9 9 8 8 8 8 8 8 7 7 7 7 7 7 6 6 6 6 5 5 5 5 4 4
10 9 9 9 9 9 9 9 9 9 9 9 9 9 9 9 9 8 8 8 8 8 8 8 8 8 8 7 7 7 7 7 6 6 6 6 5 5 5 5 4 4 4
9 9 9 9 9 9 9 9 9 9 9 9 8 8 8 8 8 8 8 8 8 8 8 8 8 7 7 7 7 7 7 7 6 6 6 5 5 5 5 4 4 4 4
9 8 8 8 8 8 8 8 8 8 8 8 8 8 8 8 8 8 8 8 8 8 8 7 7 7 7 7 7 7 6 6 6 6 5 5 5 5 4 4 4 4 3
8 8 8 8 8 8 8 8 8 8 8 8 8 8 8 8 8 7 7 7 7 7 7 7 7 7 7 6 6 6 6 6 6 5 5 5 5 4 4 4 4 3 3
8 8 7 8 8 8 8 8 8 8 8 7 7 7 7 7 7 7 7 7 7 7 7 7 7 6 6 6 6 6 6 5 5 5 5 4 4 4 4 3 3 3 3
Wind_Speed
4 4 4 3 4 4 3 4 4 4 4 3 3 3 3 3 3 3 2 2 2 1 1 2 2 2 2 2 2 2 2 3 3 1 2 2 3 3 4 6 8 8 6
3 3 4 5 5 4 4 4 3 4 4 4 4 3 3 3 3 3 3 2 1 2 2 2 2 2 2 2 2 2 2 2 4 3 2 1 2 3 3 3 5 6 6
3 3 3 5 5 5 5 4 4 3 3 3 3 3 3 2 2 3 3 2 2 1 2 2 3 3 2 2 2 2 2 3 3 3 2 1 1 1 1 2 3 3 4
4 4 3 4 5 5 4 4 4 4 4 4 3 3 3 2 2 2 2 2 2 1 1 1 2 3 2 2 3 2 3 3 3 3 2 2 1 1 1 1 1 2 2
3 4 4 3 4 4 4 4 3 3 3 3 3 3 3 2 1 1 1 2 2 2 1 2 3 5 5 3 3 2 3 2 2 2 2 1 1 1 2 2 2 2 2
3 4 4 3 4 5 4 3 3 3 2 3 3 3 3 2 2 2 1 0 2 3 3 2 3 4 5 5 6 5 4 3 3 2 2 2 2 2 1 1 1 1 2
3 3 3 3 3 4 4 3 4 4 3 2 3 3 3 4 4 2 1 1 1 2 3 3 2 3 4 3 3 3 2 2 3 3 3 3 2 2 2 1 2 2 3
3 3 3 3 3 4 4 4 4 3 3 3 3 3 3 4 5 4 2 1 1 1 2 3 3 3 3 3 3 3 2 1 2 2 3 2 2 2 3 3 3 2 2
3 3 3 3 3 4 4 5 4 4 3 3 3 4 4 4 6 5 3 2 2 2 2 2 3 3 4 5 3 2 2 1 2 4 4 3 3 3 2 1 0 0 2
2 2 3 3 4 4 5 4 3 3 4 4 4 4 5 4 6 6 5 2 3 2 2 2 3 4 5 5 3 3 3 3 2 2 2 2 2 2 3 3 3 2 2
2 2 3 3 4 4 4 4 3 3 4 4 4 4 4 5 6 7 6 3 3 3 2 2 2 5 5 4 3 2 3 2 2 3 2 2 2 2 2 4 3 3 3
2 3 2 2 3 3 4 4 4 4 4 4 4 4 3 4 5 6 8 6 3 2 2 2 3 6 6 5 3 3 3 2 1 1 1 2 2 2 2 3 3 3 3
2 3 3 2 2 3 4 4 4 4 4 4 4 4 3 3 5 8 9 8 5 2 1 2 3 4 4 3 5 5 4 3 2 2 3 3 3 2 2 1 1 1 1
2 3 3 3 2 2 2 3 3 4 4 4 4 4 3 3 3 4 4 4 4 2 2 2 3 4 3 3 3 4 4 3 3 3 3 2 1 1 1 1 1 1 1
3 3 3 2 2 2 2 2 3 3 4 4 4 4 4 4 4 6 5 4 4 4 3 2 2 2 2 3 3 3 3 3 3 3 2 2 2 2 2 2 2 1 2
3 3 3 2 2 2 3 2 1 2 3 4 5 5 4 5 6 7 7 6 6 5 3 3 3 4 4 4 4 3 3 3 3 3 3 3 3 3 2 2 2 2 3
3 3 2 3 3 3 3 4 2 1 0 2 4 5 5 5 6 7 7 6 6 6 3 3 3 4 4 4 3 4 4 3 3 3 3 3 3 3 2 2 3 3 3
3 3 3 3 3 3 4 4 4 4 2 1 2 4 5 6 6 6 7 6 3 4 4 4 5 4 4 4 4 4 3 3 3 3 3 3 3 2 2 2 3 3 3
3 3 3 3 3 3 3 3 3 3 3 2 1 1 4 4 5 6 7 4 5 5 5 5 5 5 4 5 4 4 4 4 4 3 3 3 3 3 3 3 3 4 3
3 4 3 3 3 3 3 3 3 4 4 4 4 3 3 2 2 4 5 4 5 5 5 5 5 4 4 4 4 4 4 4 4 4 3 3 3 3 3 4 3 3 3
3 3 5 3 3 3 4 4 4 4 4 4 4 5 6 5 5 5 5 5 5 5 6 5 5 4 4 4 4 4 5 4 4 4 3 3 3 3 3 3 3 3 3
2 3 3 3 3 3 3 3 3 3 4 4 3 4 7 5 5 5 5 5 5 5 5 4 5 5 5 4 4 4 4 4 4 3 3 3 3 3 3 3 3 3 3
2 3 3 3 3 4 4 3 3 3 4 4 4 4 5 5 5 5 5 5 4 4 4 4 4 4 4 5 5 5 5 5 4 4 4 3 3 4 4 4 4 4 3
3 3 3 3 3 3 3 3 3 3 3 3 3 4 4 4 4 4 4 4 4 4 4 4 5 5 5 4 5 6 6 6 6 6 5 5 4 4 4 4 4 4 4
3 3 3 3 3 3 3 3 3 3 3 3 3 3 4 4 4 4 4 4 4 4 5 4 4 4 6 6 6 6 7 8 7 7 6 5 4 4 4 4 4 3 4
3 3 3 3 3 3 3 3 3 3 3 4 3 3 3 3 3 4 3 3 3 3 3 3 4 5 5 6 7 8 7 8 8 8 6 4 4 4 4 4 4 4 4
Wind_Direction
179 171 162 171 160 155 166 149 149 146 150 168 165 161 150 143 133 132 145 130 126 144 153 122 102 92 104 103 94 73 62 88 114 114 116 128 124 128 134 147 142 146 152
175 171 170 172 160 163 166 163 171 165 168 176 168 156 147 147 149 144 154 154 154 136 135 126 127 108 93 92 104 106 101 104 129 137 136 145 157 157 155 161 162 168 168
168 170 166 168 165 172 175 172 170 170 165 159 155 143 149 151 146 153 156 157 160 168 158 145 147 136 143 141 129 118 120 115 115 133 152 149 168 169 153 175 175 180 179
173 176 176 177 165 165 170 172 178 178 166 168 166 152 157 157 151 160 157 152 149 114 104 123 123 132 135 144 135 132 130 123 122 131 149 162 167 191 150 198 245 229 208
179 180 184 180 162 163 170 177 173 167 166 163 160 155 157 165 161 134 146 155 146 126 78 74 90 104 102 100 109 108 117 127 140 145 158 157 178 164 200 219 224 250 253
188 191 174 168 161 158 171 174 160 156 169 157 160 160 157 161 128 117 72 154 166 154 148 149 138 117 118 116 108 103 106 129 152 157 172 177 203 198 202 211 217 237 271
175 163 154 153 148 155 168 167 162 167 178 177 168 156 157 157 156 164 179 276 179 159 162 174 177 156 148 159 150 133 124 139 149 156 170 200 200 205 184 215 231 234 236
168 159 153 158 157 162 166 175 176 176 177 183 180 165 157 170 175 183 203 204 215 203 187 176 168 176 182 156 156 166 178 192 182 157 182 202 187 179 186 206 226 242 270
180 167 160 163 163 167 178 183 185 186 178 179 189 171 164 179 189 191 188 185 201 220 211 183 179 166 168 166 161 172 176 202 176 167 172 179 177 169 158 95 341 224 269
175 174 163 174 172 182 189 186 190 194 182 180 188 186 181 182 192 194 199 198 203 210 205 188 182 168 170 171 180 186 196 210 189 190 211 239 233 222 200 180 190 205 239
165 171 178 180 185 188 186 180 185 193 187 189 191 193 187 182 190 194 195 208 206 204 197 188 185 174 173 178 182 190 205 211 203 203 208 217 225 221 207 202 197 188 206
167 169 175 181 196 194 177 183 191 187 187 196 199 198 186 181 181 194 194 206 226 208 203 192 186 181 183 191 198 204 210 220 222 206 207 217 221 229 221 202 195 193 208
168 173 178 189 200 182 180 189 196 193 196 202 195 196 195 185 183 191 198 208 225 228 211 192 182 187 187 198 207 209 208 212 207 207 216 226 219 209 189 180 177 186 247
185 191 189 192 198 182 186 191 194 197 201 205 205 204 198 182 177 183 191 202 211 222 221 189 184 188 193 208 215 219 217 209 199 207 213 220 216 201 193 186 199 208 242
207 209 202 198 202 195 193 191 198 202 204 202 201 194 187 194 199 185 179 189 196 200 185 176 185 196 212 220 217 214 213 208 209 209 207 211 215 212 211 191 190 196 222
214 213 204 197 201 192 186 185 173 194 208 195 192 191 197 194 182 180 186 192 192 184 172 195 205 208 209 210 210 213 214 214 214 208 204 206 212 214 217 213 205 214 232
220 220 201 196 201 206 196 186 195 258 360 193 193 190 192 191 188 186 186 184 180 169 178 201 208 208 215 215 214 215 214 213 205 200 207 214 215 212 213 217 217 226 237
219 228 222 206 205 212 209 196 194 194 202 225 223 204 194 189 189 187 176 158 174 191 204 208 215 214 215 215 215 216 213 206 202 206 210 209 203 204 214 218 222 228 238
219 224 226 215 213 213 210 200 198 196 195 193 166 208 206 188 181 183 171 183 195 208 214 216 218 216 215 213 212 212 207 205 204 204 210 213 210 205 218 226 227 238 235
212 233 238 227 218 213 215 207 202 200 195 194 198 198 180 171 186 192 201 208 208 213 215 215 217 218 213 211 208 206 205 204 205 207 212 215 212 209 219 226 227 235 240
204 214 232 240 228 223 219 214 211 206 204 203 205 203 190 196 202 204 209 216 219 218 216 215 214 216 212 205 204 206 206 206 205 205 208 209 208 214 224 230 238 242 248
207 211 216 226 231 225 230 223 211 205 207 208 203 206 200 200 203 205 212 218 222 221 215 210 211 213 208 205 205 205 206 205 205 204 207 209 212 217 222 227 237 239 245
215 223 221 222 224 231 231 226 217 210 208 209 204 202 201 206 208 211 215 216 218 219 213 205 208 212 209 204 201 197 203 204 203 198 201 207 215 222 226 230 234 238 239
230 231 230 221 216 225 231 226 225 223 217 214 211 207 206 211 214 216 215 213 211 210 210 209 207 207 199 196 197 199 201 200 198 197 199 206 215 222 224 227 233 233 237
225 230 229 221 216 224 233 228 223 226 228 224 220 220 215 214 217 219 216 211 208 205 204 207 203 201 199 198 195 198 200 200 200 200 198 201 209 216 221 227 230 235 239
228 231 227 226 225 225 230 231 230 233 235 233 224 222 223 221 222 220 214 208 206 205 201 204 206 207 208 207 201 199 197 199 201 202 199 196 205 215 219 229 233 240 241
Height
1532 1534 1535 1537 1538 1540 1541 1542 1543 1544 1545 1546 1547 1547 1548 1548 1548 1549 1550 1550 1551 1551 1552 1552 1553 1553 1553 1554 1554 1555 1555 1556 1555 1556 1557 1557 1557 1557 1557 1557 1556 1556 1556
1530 1532 1533 1535 1537 1538 1540 1541 1542 1543 1544 1545 1546 1546 1547 1548 1548 1549 1549 1549 1550 1550 1551 1551 1552 1552 1553 1553 1553 1554 1554 1555 1555 1555 1556 1556 1556 1556 1556 1556 1556 1555 1555
1528 1529 1531 1533 1534 1536 1537 1539 1540 1541 1542 1543 1544 1545 1546 1546 1547 1547 1548 1548 1549 1549 1550 1550 1550 1551 1551 1552 1552 1552 1553 1553 1554 1554 1555 1555 1555 1556 1555 1555 1555 1555 1554
1525 1527 1528 1530 1532 1533 1535 1537 1538 1540 1540 1541 1542 1543 1544 1545 1545 1546 1546 1547 1547 1548 1548 1549 1549 1550 1550 1550 1551 1551 1552 1552 1553 1553 1553 1554 1554 1554 1554 1554 1554 1554 1553
1523 1524 1526 1527 1529 1531 1532 1534 1536 1537 1538 1539 1540 1541 1542 1543 1544 1544 1545 1545 1545 1546 1546 1547 1548 1548 1549 1549 1550 1550 1550 1551 1551 1551 1552 1552 1552 1553 1553 1553 1552 1552 1552
1520 1521 1523 1524 1526 1528 1530 1531 1533 1535 1536 1537 1537 1538 1539 1540 1541 1542 1543 1543 1544 1544 1544 1545 1546 1546 1547 1547 1548 1549 1549 1549 1549 1550 1550 1550 1550 1551 1551 1551 1550 1550 1549
1517 1519 1520 1522 1523 1525 1527 1529 1530 1531 1532 1534 1535 1536 1536 1537 1538 1540 1540 1541 1541 1542 1542 1543 1543 1544 1545 1545 1546 1547 1547 1548 1548 1548 1548 1548 1548 1548 1548 1548 1548 1548 1547
1515 1516 1517 1519 1520 1522 1523 1525 1526 1528 1529 1531 1532 1533 1533 1534 1536 1537 1538 1538 1539 1539 1540 1540 1541 1542 1542 1543 1543 1544 1544 1545 1545 1546 1546 1546 1546 1546 1546 1546 1545 1545 1545
1513 1513 1514 1516 1517 1518 1520 1521 1523 1525 1526 1527 1528 1530 1530 1531 1532 1534 1534 1535 1536 1536 1537 1538 1539 1539 1540 1540 1541 1541 1541 1542 1543 1543 1543 1543 1543 1544 1543 1543 1543 1542 1541
1510 1511 1511 1512 1514 1515 1516 1518 1520 1522 1523 1524 1525 1526 1527 1528 1529 1530 1531 1532 1532 1533 1534 1535 1535 1536 1537 1537 1538 1538 1538 1539 1539 1540 1540 1540 1540 1540 1540 1540 1539 1539 1538
1507 1508 1509 1509 1511 1512 1514 1515 1517 1518 1520 1521 1522 1523 1524 1525 1526 1527 1527 1528 1529 1530 1530 1531 1532 1533 1534 1534 1534 1535 1535 1536 1536 1536 1536 1536 1536 1536 1536 1536 1536 1536 1535
1504 1505 1506 1507 1508 1509 1510 1512 1513 1515 1516 1517 1519 1520 1521 1521 1522 1523 1524 1525 1526 1526 1527 1528 1529 1529 1530 1530 1531 1531 1532 1532 1532 1532 1532 1532 1532 1532 1532 1532 1532 1531 1531
1501 1502 1503 1504 1505 1506 1507 1508 1510 1511 1512 1514 1515 1516 1517 1518 1518 1519 1520 1521 1522 1523 1523 1524 1525 1526 1526 1526 1527 1528 1528 1528 1528 1528 1528 1528 1528 1528 1528 1528 1527 1527 1527
1498 1499 1500 1501 1502 1503 1504 1505 1506 1507 1508 1510 1511 1512 1513 1514 1514 1515 1516 1517 1518 1518 1519 1519 1520 1521 1522 1522 1523 1523 1524 1524 1524 1524 1524 1524 1524 1524 1523 1523 1523 1523 1523
1495 1496 1496 1497 1498 1499 1500 1501 1502 1503 1504 1505 1506 1507 1508 1509 1510 1511 1512 1512 1513 1514 1514 1515 1515 1516 1517 1517 1518 1519 1519 1519 1520 1520 1520 1520 1520 1520 1519 1519 1519 1519 1518
1491 1492 1492 1493 1494 1495 1496 1498 1499 1500 1501 1502 1503 1504 1505 1506 1507 1507 1508 1509 1509 1510 1510 1510 1511 1512 1512 1513 1513 1514 1515 1515 1515 1515 1515 1515 1515 1515 1515 1515 1515 1515 1514
1487 1488 1489 1489 1490 1491 1492 1494 1494 1496 1497 1498 1499 1500 1501 1502 1502 1503 1503 1504 1505 1505 1505 1506 1506 1507 1508 1508 1509 1509 1510 1510 1510 1510 1511 1510 1511 1511 1510 1510 1510 1510 1509
1484 1484 1485 1486 1487 1487 1488 1490 1491 1491 1492 1493 1495 1496 1496 1497 1498 1499 1499 1500 1500 1500 1501 1502 1502 1503 1504 1504 1504 1505 1506 1506 1506 1506 1506 1506 1506 1506 1506 1505 1505 1505 1505
1479 1480 1481 1482 1483 1484 1484 1485 1486 1488 1488 1489 1490 1491 1492 1493 1494 1494 1495 1495 1495 1495 1496 1497 1498 1499 1499 1500 1500 1501 1501 1501 1501 1502 1502 1502 1501 1501 1501 1501 1501 1500 1500
1475 1476 1478 1478 1479 1480 1480 1481 1482 1483 1484 1485 1485 1486 1487 1488 1488 1488 1489 1489 1490 1490 1491 1492 1493 1494 1495 1495 1495 1496 1496 1496 1496 1497 1497 1497 1497 1497 1496 1496 1496 1495 1495
1471 1472 1473 1474 1475 1475 1476 1477 1478 1479 1480 1480 1481 1482 1483 1483 1483 1483 1484 1484 1485 1486 1486 1487 1488 1489 1489 1490 1490 1491 1491 1491 1491 1491 1492 1492 1492 1491 1491 1491 1491 1490 1490
1467 1468 1469 1470 1471 1472 1472 1473 1474 1475 1475 1476 1477 1477 1478 1478 1479 1479 1479 1479 1480 1481 1481 1482 1482 1483 1484 1485 1485 1485 1486 1486 1486 1486 1486 1486 1486 1486 1486 1486 1485 1485 1484
1463 1464 1465 1466 1467 1468 1469 1469 1470 1471 1471 1472 1472 1473 1473 1473 1473 1474 1474 1474 1475 1475 1476 1477 1477 1478 1479 1479 1480 1480 1480 1480 1480 1480 1480 1480 1480 1480 1480 1480 1480 1480 1479
1459 1460 1461 1461 1462 1463 1464 1465 1466 1466 1467 1468 1468 1468 1468 1468 1468 1469 1469 1469 1469 1470 1470 1471 1472 1473 1473 1474 1474 1474 1475 1475 1475 1475 1475 1475 1475 1475 1475 1475 1475 1474 1474
1454 1455 1456 1457 1458 1459 1460 1460 1461 1462 1462 1463 1463 1463 1463 1463 1464 1464 1464 1464 1464 1464 1465 1466 1467 1467 1468 1468 1468 1469 1469 1470 1470 1470 1470 1470 1470 1470 1470 1469 1469 1469 1469
1449 1450 1451 1453 1454 1455 1455 1456 1456 1457 1457 1458 1458 1458 1458 1458 1459 1459 1459 1459 1459 1459 1460 1460 1461 1461 1462 1463 1463 1463 1464 1464 1464 1465 1464 1464 1464 1464 1464 1463 1463 1463 1463